• In Hungary
  • List of Countries
  • For 7 days
  • Water Temperature
  • Satellite Maps
  • Weather Map
  • News
  • Weather Widgets
  • user-avatar
    Login

    Hourly Weather Puerto Manzanillo

    Today, 21 May, Monday

    Time Temperature Precipitation Wind Pressure Humidity
    00:00 +26°C° 0 mm 0 mps 754 mmHg 80%
    01:00 +28°C° 0 mm 1 mps 754 mmHg 80%
    02:00 +28°C° 0 mm 1 mps 753 mmHg 79%
    03:00 +27°C° 0 mm 1 mps 753 mmHg 79%
    04:00 +28°C° 0 mm 1 mps 753 mmHg 78%
    05:00 +28°C° 0 mm 1 mps 754 mmHg 77%
    06:00 +29°C° 0 mm 1 mps 754 mmHg 74%
    07:00 +31°C° 0.4 mm 1 mps 754 mmHg 67%
    08:00 +33°C° 0.4 mm 1 mps 754 mmHg 60%
    09:00 +35°C° 0.4 mm 1 mps 754 mmHg 53%
    10:00 +35°C° 0.1 mm 1 mps 754 mmHg 53%
    11:00 +36°C° 0.1 mm 2 mps 754 mmHg 54%
    12:00 +36°C° 0.1 mm 2 mps 753 mmHg 54%
    13:00 +35°C° 0.2 mm 2 mps 753 mmHg 58%
    14:00 +34°C° 0.2 mm 2 mps 753 mmHg 62%
    15:00 +34°C° 0.2 mm 2 mps 752 mmHg 66%
    16:00 +31°C° 0.8 mm 2 mps 752 mmHg 73%
    17:00 +30°C° 0.8 mm 1 mps 752 mmHg 80%
    18:00 +29°C° 0.8 mm 1 mps 753 mmHg 87%
    19:00 +28°C° 1.2 mm 1 mps 753 mmHg 86%
    20:00 +28°C° 1.2 mm 1 mps 754 mmHg 86%
    21:00 +28°C° 1.2 mm 1 mps 754 mmHg 86%
    22:00 +28°C° 0.1 mm 1 mps 754 mmHg 85%
    23:00 +28°C° 0.1 mm 1 mps 754 mmHg 85%

    Tomorrow, 22 May, Tuesday

    Time Temperature Precipitation Wind Pressure Humidity
    00:00 +28°C° 0.1 mm 1 mps 754 mmHg 84%
    01:00 +28°C° 0 mm 1 mps 753 mmHg 83%
    02:00 +28°C° 0 mm 1 mps 753 mmHg 83%
    03:00 +28°C° 0 mm 1 mps 753 mmHg 83%
    04:00 +28°C° 0 mm 1 mps 753 mmHg 82%
    05:00 +28°C° 0 mm 1 mps 753 mmHg 80%
    06:00 +28°C° 0 mm 1 mps 754 mmHg 79%
    07:00 +30°C° 0 mm 1 mps 754 mmHg 72%
    08:00 +32°C° 0 mm 1 mps 754 mmHg 64%
    09:00 +34°C° 0 mm 1 mps 755 mmHg 57%
    10:00 +34°C° 0.1 mm 1 mps 754 mmHg 56%
    11:00 +34°C° 0.1 mm 1 mps 754 mmHg 56%
    12:00 +36°C° 0.1 mm 2 mps 754 mmHg 55%
    13:00 +35°C° 0.5 mm 2 mps 753 mmHg 60%
    14:00 +34°C° 0.5 mm 2 mps 753 mmHg 64%
    15:00 +32°C° 0.5 mm 2 mps 752 mmHg 68%
    16:00 +31°C° 0.8 mm 2 mps 752 mmHg 73%
    17:00 +30°C° 0.8 mm 1 mps 753 mmHg 77%
    18:00 +29°C° 0.8 mm 1 mps 753 mmHg 82%
    19:00 +29°C° 0.2 mm 1 mps 753 mmHg 82%
    20:00 +28°C° 0.2 mm 1 mps 754 mmHg 82%
    21:00 +28°C° 0.2 mm 1 mps 755 mmHg 83%
    22:00 +28°C° 0.1 mm 1 mps 755 mmHg 82%
    23:00 +28°C° 0.1 mm 1 mps 754 mmHg 82%

    Day after tomorrow, 23 May, Wednesday

    Time Temperature Precipitation Wind Pressure Humidity
    00:00 +28°C° 0.1 mm 1 mps 754 mmHg 81%
    01:00 +28°C° 0 mm 1 mps 754 mmHg 80%
    02:00 +28°C° 0 mm 1 mps 754 mmHg 80%
    03:00 +28°C° 0 mm 1 mps 753 mmHg 79%
    04:00 +28°C° 0.2 mm 1 mps 754 mmHg 79%
    05:00 +28°C° 0.2 mm 1 mps 754 mmHg 78%
    06:00 +28°C° 0.2 mm 1 mps 754 mmHg 78%
    07:00 +29°C° 0.2 mm 1 mps 755 mmHg 73%
    08:00 +30°C° 0.2 mm 1 mps 755 mmHg 68%
    09:00 +31°C° 0.2 mm 1 mps 755 mmHg 63%
    10:00 +32°C° 0.1 mm 1 mps 755 mmHg 60%
    11:00 +34°C° 0.1 mm 2 mps 755 mmHg 56%
    12:00 +36°C° 0.1 mm 2 mps 755 mmHg 53%
    13:00 +35°C° 0.1 mm 2 mps 754 mmHg 56%
    14:00 +34°C° 0.1 mm 2 mps 753 mmHg 59%
    15:00 +32°C° 0.1 mm 2 mps 753 mmHg 62%
    16:00 +31°C° 0.1 mm 2 mps 753 mmHg 68%
    17:00 +30°C° 0.1 mm 1 mps 753 mmHg 75%
    18:00 +29°C° 0.1 mm 1 mps 754 mmHg 81%
    19:00 +28°C° 0.1 mm 1 mps 754 mmHg 82%
    20:00 +28°C° 0.1 mm 1 mps 755 mmHg 83%
    21:00 +26°C° 0.1 mm 0 mps 756 mmHg 84%
    22:00 +26°C° 0 mm 0 mps 756 mmHg 83%
    23:00 +28°C° 0 mm 1 mps 755 mmHg 81%

    24 May, Thursday

    Time Temperature Precipitation Wind Pressure Humidity
    00:00 +28°C° 0 mm 1 mps 755 mmHg 80%
    01:00 +26°C° 0 mm 0 mps 755 mmHg 80%
    02:00 +26°C° 0 mm 0 mps 754 mmHg 80%
    03:00 +26°C° 0 mm 0 mps 754 mmHg 80%
    04:00 +26°C° 0 mm 0 mps 754 mmHg 79%
    05:00 +26°C° 0 mm 0 mps 755 mmHg 78%
    06:00 +27°C° 0 mm 0 mps 755 mmHg 77%
    07:00 +28°C° 0 mm 0 mps 755 mmHg 70%
    08:00 +32°C° 0 mm 1 mps 756 mmHg 63%
    09:00 +34°C° 0 mm 1 mps 756 mmHg 57%
    10:00 +34°C° 0.1 mm 1 mps 756 mmHg 57%
    11:00 +35°C° 0.1 mm 2 mps 755 mmHg 57%
    12:00 +36°C° 0.1 mm 2 mps 755 mmHg 57%
    13:00 +34°C° 0.5 mm 2 mps 754 mmHg 63%
    14:00 +32°C° 0.5 mm 2 mps 754 mmHg 69%
    15:00 +31°C° 0.5 mm 2 mps 753 mmHg 75%
    16:00 +30°C° 0.8 mm 2 mps 753 mmHg 79%
    17:00 +29°C° 0.8 mm 1 mps 754 mmHg 83%
    18:00 +28°C° 0.8 mm 1 mps 754 mmHg 87%
    19:00 +28°C° 0.2 mm 1 mps 754 mmHg 87%
    20:00 +28°C° 0.2 mm 1 mps 755 mmHg 88%
    21:00 +28°C° 0.2 mm 1 mps 755 mmHg 88%
    22:00 +28°C° 0.1 mm 1 mps 755 mmHg 87%
    23:00 +28°C° 0.1 mm 1 mps 755 mmHg 87%

    25 May, Friday

    Time Temperature Precipitation Wind Pressure Humidity
    00:00 +28°C° 0.1 mm 1 mps 755 mmHg 86%
    01:00 +28°C° 0.1 mm 1 mps 754 mmHg 86%
    02:00 +28°C° 0.1 mm 1 mps 754 mmHg 85%
    03:00 +28°C° 0.1 mm 1 mps 753 mmHg 85%
    04:00 +28°C° 0 mm 1 mps 754 mmHg 84%
    05:00 +28°C° 0 mm 1 mps 754 mmHg 83%
    06:00 +28°C° 0 mm 1 mps 754 mmHg 81%
    07:00 +30°C° 0.1 mm 1 mps 755 mmHg 73%
    08:00 +33°C° 0.1 mm 1 mps 755 mmHg 64%
    09:00 +35°C° 0.1 mm 1 mps 755 mmHg 55%
    10:00 +35°C° 0.1 mm 1 mps 755 mmHg 56%
    11:00 +36°C° 0.1 mm 2 mps 754 mmHg 57%
    12:00 +36°C° 0.1 mm 2 mps 753 mmHg 57%
    13:00 +35°C° 0.3 mm 2 mps 753 mmHg 61%
    14:00 +34°C° 0.3 mm 2 mps 752 mmHg 65%
    15:00 +34°C° 0.3 mm 2 mps 752 mmHg 68%
    16:00 +31°C° 0.3 mm 2 mps 752 mmHg 74%
    17:00 +30°C° 0.3 mm 2 mps 753 mmHg 79%
    18:00 +29°C° 0.3 mm 1 mps 753 mmHg 84%
    19:00 +29°C° 0.6 mm 1 mps 754 mmHg 85%
    20:00 +29°C° 0.6 mm 1 mps 754 mmHg 86%
    21:00 +26°C° 0.6 mm 0 mps 755 mmHg 86%
    22:00 +26°C° 0.4 mm 0 mps 754 mmHg 86%
    23:00 +26°C° 0.4 mm 0 mps 754 mmHg 85%

    26 May, Saturday

    Time Temperature Precipitation Wind Pressure Humidity
    00:00 +26°C° 0.4 mm 0 mps 754 mmHg 84%
    01:00 +26°C° 0 mm 0 mps 753 mmHg 84%
    02:00 +28°C° 0 mm 1 mps 753 mmHg 84%
    03:00 +28°C° 0 mm 1 mps 753 mmHg 83%
    04:00 +28°C° 0 mm 1 mps 753 mmHg 82%
    05:00 +26°C° 0 mm 0 mps 753 mmHg 80%
    06:00 +26°C° 0 mm 0 mps 754 mmHg 79%
    07:00 +29°C° 0.1 mm 0 mps 754 mmHg 72%
    08:00 +33°C° 0.1 mm 1 mps 754 mmHg 64%
    09:00 +35°C° 0.1 mm 1 mps 754 mmHg 57%
    10:00 +35°C° 0.1 mm 1 mps 754 mmHg 57%
    11:00 +35°C° 0.1 mm 1 mps 753 mmHg 56%
    12:00 +36°C° 0.1 mm 2 mps 753 mmHg 56%
    13:00 +35°C° 0.2 mm 2 mps 752 mmHg 59%
    14:00 +35°C° 0.2 mm 2 mps 752 mmHg 63%
    15:00 +34°C° 0.2 mm 2 mps 751 mmHg 66%
    16:00 +32°C° 0.4 mm 2 mps 752 mmHg 71%
    17:00 +31°C° 0.4 mm 1 mps 752 mmHg 76%
    18:00 +29°C° 0.4 mm 1 mps 753 mmHg 82%
    19:00 +29°C° 0.6 mm 1 mps 753 mmHg 83%
    20:00 +29°C° 0.6 mm 1 mps 754 mmHg 84%
    21:00 +29°C° 0.6 mm 1 mps 754 mmHg 85%
    22:00 +28°C° 0.4 mm 1 mps 754 mmHg 85%
    23:00 +28°C° 0.4 mm 1 mps 754 mmHg 85%
    Show more